Вернуться в каталог

STARLINK-6249

АктивенСвязьVLEO
NORAD 56541·PAYLOAD·🇺🇸 United States

Запущен May 14, 2023 с Cape Canaveral Space Force Station

Loading…

Ближайшие Пролёты (ближайшие 24 часа)

TLE

СвежийSource: CelesTrak SupGP

Эпоха: Sep 15, 2026, 02:47 UTC

1 56541C 23065AQ  26258.11645833 -.00022020  00000+0 -79762-3 0  2580
2 56541  43.0001 234.0638 0001454 262.8463 308.2722 15.27586897    15

Отслеживайте STARLINK-6249 в реальном времени с AllMySat

Download on the App Store